Regional Weather Roundup
Issued by NWS

Home | Current Version | Previous Version | Text Only | Print | Product List | Glossary Off
Versions: 1 2 3 4 5 6 7 8 9 10 11 12 13 14 15 16 17 18 19 20 21 22 23 24 25 26 27 28 29 30 31 32 33 34 35 36 37 38 39 40 41 42 43 44 45 46 47 48 49 50

000
ASUS43 KLSX 300407
RWRMO

WEATHER SUMMARY FOR MISSOURI
NATIONAL WEATHER SERVICE SPRINGFIELD MO
1100 PM CDT MON SEP 29 2014

NOTE: "FAIR" INDICATES FEW OR NO CLOUDS BELOW 12,000 FEET WITH NO
       SIGNIFICANT WEATHER AND/OR OBSTRUCTIONS TO VISIBILITY.
       CURRENT SKY AND/OR WEATHER CONDITIONS ARE NOT AVAILABLE FOR
       CHILLICOTHE AND FARMINGTON.

MOZ001>031-035>038-043-044-053-054-300500-
...NORTHERN AND WESTERN MISSOURI...

CITY           SKY/WX    TMP DP  RH WIND       PRES   REMARKS
KANSAS CTY INT CLEAR     66  58  75 SE6       29.96R
KANSAS C DTWN  CLEAR     71  60  68 E3        29.94S
LEE`S SUMMIT   CLEAR     71  58  63 SE6       29.97S
ST JOSEPH      CLEAR     61  57  87 CALM      29.95R
CHILLICOTHE      N/A     62  58  86 CALM      29.97S
KIRKSVILLE     CLEAR     62  58  86 CALM      29.97F

$$
MOZ066>068-077>081-088>096-101>105-300500-
...SOUTHWEST MISSOURI...

CITY           SKY/WX    TMP DP  RH WIND       PRES   REMARKS
SPRINGFIELD    CLEAR     64  57  78 CALM      29.97F
JOPLIN         CLEAR     65  59  81 E3        29.96F

$$
MOZ032>034-039>042-045>050-055>058-069>072-300500-
...CENTRAL MISSOURI...

CITY           SKY/WX    TMP DP  RH WIND       PRES   REMARKS
COLUMBIA       CLEAR     66  58  75 SE5       29.97F
JEFFERSON CITY CLEAR     63  59  87 CALM      29.96S
ROLLA          CLEAR     67  53  61 SE9       29.97S
SEDALIA        CLEAR     69  58  67 S3        29.97S
WHITEMAN AFB   CLEAR     63  59  87 S2        29.95S
OSAGE BEACH    CLEAR     61  57  88 CALM      29.97S

$$
MOZ051-052-059>065-300500-
...EAST CENTRAL MISSOURI...

CITY           SKY/WX    TMP DP  RH WIND       PRES   REMARKS
ST LOUIS INTL  CLEAR     70  58  65 CALM      29.96F
SPIRIT OF STL  CLEAR     60  57  89 CALM      29.95F
ST CHARLES     CLEAR     63  60  90 CALM      29.95F FOG

$$
MOZ072>076-082>087-097>100-106>115-300500-
...SOUTH CENTRAL AND SOUTHEAST MISSOURI...

CITY           SKY/WX    TMP DP  RH WIND       PRES   REMARKS
CAPE GIRARDEAU CLEAR     59  56  89 CALM      29.96S
FARMINGTON     CLEAR     61  55  82 CALM      30.00F
POPLAR BLUFF   CLEAR     62  57  83 CALM      29.95S
WEST PLAINS    MOCLDY    63  59  87 CALM      30.00S

$$


USA.gov is the U.S. government's official web portal to all federal, state and local government web resources and services.